CW8122 Weather Reports


time (UTC)temp
C
wind
direction
speed
KPH
gust
KPH
rain 1hr
cm
rain 24hr
cm
rain mn
cm
humidity
%
barometer
mb
20260906232704 34 153 4.8 14.5 0.00 0.00 0.00 17 1008.8
20260906231705 35 220 4.8 20.9 0.00 0.00 0.00 17 1008.7
20260906231205 35 171 12.9 20.9 0.00 0.00 0.00 18 1008.7
20260906230205 35 177 8.0 19.3 0.00 0.00 0.00 18 1008.8
20260906224205 35 256 8.0 16.1 0.00 0.00 0.00 17 1008.7
20260906223705 36 207 8.0 19.3 0.00 0.00 0.00 17 1008.9
20260906222705 35 221 4.8 11.3 0.00 0.00 0.00 17 1008.9
20260906221705 35 137 4.8 12.9 0.00 0.00 0.00 17 1009.0
20260906220705 35 153 1.6 19.3 0.00 0.00 0.00 17 1009.3
20260906214705 36 261 6.4 16.1 0.00 0.00 0.00 15 1009.6
20260906213705 36 268 8.0 14.5 0.00 0.00 0.00 15 1009.8
20260906213206 37 204 6.4 14.5 0.00 0.00 0.00 14 1010.0
20260906212705 37 355 3.2 14.5 0.00 0.00 0.00 14 1010.1
20260906211205 36 209 4.8 14.5 0.00 0.00 0.00 14 1010.4
20260906210205 35 185 9.7 16.1 0.00 0.00 0.00 14 1010.6
20260906204705 36 96 3.2 9.7 0.00 0.00 0.00 14 1011.0
20260906204206 35 254 4.8 9.7 0.00 0.00 0.00 15 1011.0
20260906203205 34 121 4.8 16.1 0.00 0.00 0.00 15 1011.3
20260906202705 35 142 9.7 16.1 0.00 0.00 0.00 15 1011.4
20260906202205 35 169 9.7 14.5 0.00 0.00 0.00 15 1011.4
20260906201205 35 234 8.0 12.9 0.00 0.00 0.00 14 1011.6
20260906200205 35 246 3.2 9.7 0.00 0.00 0.00 14 1011.6
20260906195705 36 247 4.8 9.7 0.00 0.00 0.00 14 1011.6
20260906192205 34 336 3.2 11.3 0.00 0.00 0.00 16 1012.1
20260906191705 34 214 3.2 12.9 0.00 0.00 0.00 14 1012.2
20260906190705 36 122 1.6 14.5 0.00 0.00 0.00 13 1012.4
20260906190205 35 12 6.4 14.5 0.00 0.00 0.00 13 1012.5
20260906185705 35 26 4.8 14.5 0.00 0.00 0.00 15 1012.4
20260906185207 35 166 1.6 4.8 0.00 0.00 0.00 15 1012.6
20260906184705 35 124 1.6 8.0 0.00 0.00 0.00 14 1012.7
20260906184205 34 95 1.6 12.9 0.00 0.00 0.00 15 1012.8
20260906183205 33 40 3.2 11.3 0.00 0.00 0.00 17 1012.9
20260906182205 33 329 3.2 11.3 0.00 0.00 0.00 18 1013.0
20260906181205 33 323 4.8 9.7 0.00 0.00 0.00 18 1013.3
20260906175214 33 13 4.8 11.3 0.00 0.00 0.00 21 1013.5
20260906173705 32 55 4.8 11.3 0.00 0.00 0.00 23 1013.7
20260906173206 32 66 4.8 11.3 0.00 0.00 0.00 23 1013.7
20260906172706 31 349 3.2 12.9 0.00 0.00 0.00 24 1013.7
20260906172205 31 64 4.8 12.9 0.00 0.00 0.00 25 1013.8
20260906171705 30 40 6.4 12.9 0.00 0.00 0.00 25 1013.9
20260906171205 30 44 6.4 12.9 0.00 0.00 0.00 26 1013.9
20260906165205 28 39 8.0 12.9 0.00 0.00 0.00 29 1014.2
20260906162705 29 0 8.0 19.3 0.00 0.00 0.00 28 1014.3
20260906155705 27 30 8.0 16.1 0.00 0.00 0.00 30 1014.3
20260906153705 27 2 8.0 16.1 0.00 0.00 0.00 30 1014.5
20260906151205 26 348 9.7 19.3 0.00 0.00 0.00 32 1014.6
20260906145705 25 338 9.7 20.9 0.00 0.00 0.00 32 1014.6
20260906144705 25 349 14.5 20.9 0.00 0.00 0.00 32 1014.6
20260906143205 23 344 16.1 24.1 0.00 0.00 0.00 33 1014.4
20260906142706 23 349 11.3 24.1 0.00 0.00 0.00 34 1014.5
20260906142205 23 346 12.9 20.9 0.00 0.00 0.00 35 1014.4
20260906135706 21 4 3.2 8.0 0.00 0.00 0.00 39 1014.3
20260906135204 21 15 1.6 4.8 0.00 0.00 0.00 40 1014.4
20260906132206 20 344 4.8 9.7 0.00 0.00 0.00 40 1013.9
20260906131205 20 334 4.8 8.0 0.00 0.00 0.00 40 1013.9
20260906130705 20 307 3.2 4.8 0.00 0.00 0.00 40 1013.9
20260906124704 20 307 0.0 1.6 0.00 0.00 0.00 40 1013.7
20260906123205 20 307 3.2 4.8 0.00 0.00 0.00 40 1013.7
20260906120705 21 19 1.6 4.8 0.00 0.00 0.00 39 1013.6
20260906120205 21 19 0.0 4.8 0.00 0.00 0.00 39 1013.5
20260906115704 21 19 3.2 4.8 0.00 0.00 0.00 39 1013.5
20260906115205 21 19 3.2 4.8 0.00 0.00 0.00 39 1013.5
20260906114705 21 19 3.2 4.8 0.00 0.00 0.00 38 1013.6
20260906114205 21 28 3.2 4.8 0.00 0.00 0.00 38 1013.5
20260906113205 21 50 0.0 0.0 0.00 0.00 0.00 38 1013.5
20260906111705 22 50 0.0 4.8 0.00 0.00 0.00 37 1013.5
20260906111205 22 50 1.6 4.8 0.00 0.00 0.00 37 1013.5
20260906104205 23 47 0.0 0.0 0.00 0.00 0.00 36 1013.5
20260906103705 23 47 0.0 0.0 0.00 0.00 0.00 36 1013.4
20260906101705 23 333 0.0 0.0 0.00 0.00 0.00 34 1013.3
20260906100205 23 333 1.6 4.8 0.00 0.00 0.00 33 1013.2
20260906095705 23 333 3.2 4.8 0.00 0.00 0.00 33 1013.3
20260906095205 23 333 3.2 4.8 0.00 0.00 0.00 33 1013.3
20260906093205 23 333 4.8 8.0 0.00 0.00 0.00 33 1013.2
20260906092706 24 331 4.8 4.8 0.00 0.00 0.00 33 1013.2
20260906092205 24 335 3.2 4.8 0.00 0.00 0.00 33 1013.2
20260906091705 24 347 3.2 9.7 0.00 0.00 0.00 33 1013.1
20260906091206 24 344 4.8 9.7 0.00 0.00 0.00 33 1013.1
20260906090705 24 324 4.8 9.7 0.00 0.00 0.00 33 1013.1
20260906085206 23 326 6.4 9.7 0.00 0.00 0.00 33 1013.0
20260906084205 23 307 4.8 11.3 0.00 0.00 0.00 33 1013.1
20260906083705 23 303 4.8 11.3 0.00 0.00 0.00 34 1013.2
20260906083205 23 319 3.2 8.0 0.00 0.00 0.00 34 1013.2
20260906081205 23 288 0.0 8.0 0.00 0.00 0.00 34 1013.3
20260906075205 23 308 1.6 4.8 0.00 0.00 0.00 35 1013.5
20260906073705 23 311 3.2 4.8 0.00 0.00 0.00 36 1013.6
20260906073205 23 333 4.8 4.8 0.00 0.00 0.00 36 1013.6
20260906072705 23 333 3.2 4.8 0.00 0.00 0.00 35 1013.6
20260906072204 23 333 1.6 4.8 0.00 0.00 0.00 35 1013.5
20260906071705 23 342 3.2 4.8 0.00 0.00 0.00 35 1013.6
20260906071205 23 351 3.2 4.8 0.00 0.00 0.00 35 1013.6
20260906070205 24 351 1.6 3.2 0.00 0.00 0.00 34 1013.6
20260906065705 24 351 0.0 3.2 0.00 0.00 0.00 34 1013.6
20260906065205 24 351 0.0 1.6 0.00 0.00 0.00 33 1013.6
20260906064706 24 351 0.0 3.2 0.00 0.00 0.00 33 1013.6
20260906064205 24 351 1.6 4.8 0.00 0.00 0.00 33 1013.6
20260906063205 25 351 0.0 4.8 0.00 0.00 0.00 33 1013.5
20260906062204 25 46 0.0 8.0 0.00 0.00 0.00 33 1013.5
20260906061205 25 25 3.2 4.8 0.00 0.00 0.00 33 1013.4
20260906060706 25 12 3.2 4.8 0.00 0.00 0.00 32 1013.3
20260906060205 25 30 4.8 4.8 0.00 0.00 0.00 33 1013.3
20260906054205 25 5 1.6 4.8 0.00 0.00 0.00 32 1013.1
20260906053204 25 5 1.6 9.7 0.00 0.00 0.00 33 1013.1
20260906052205 25 346 8.0 12.9 0.00 0.00 0.00 33 1013.1
20260906051704 25 315 8.0 14.5 0.00 0.00 0.00 33 1013.0
20260906051205 25 314 4.8 14.5 0.00 0.00 0.00 33 1012.9
20260906050705 25 316 4.8 16.1 0.00 0.00 0.00 33 1012.9
20260906050205 25 314 4.8 16.1 0.00 0.00 0.00 33 1012.8
20260906043205 26 315 9.7 14.5 0.00 0.00 0.00 32 1012.9
20260906042705 26 305 8.0 12.9 0.00 0.00 0.00 32 1012.9
20260906042205 26 290 8.0 12.9 0.00 0.00 0.00 31 1012.8
20260906041205 26 300 6.4 12.9 0.00 0.00 0.00 31 1012.7
20260906040205 26 306 8.0 12.9 0.00 0.00 0.00 30 1012.8
20260906035705 26 296 6.4 14.5 0.00 0.00 0.00 30 1012.9
20260906034704 27 307 4.8 19.3 0.00 0.00 0.00 29 1012.8
20260906034205 27 298 8.0 19.3 0.00 0.00 0.00 29 1012.9
20260906033705 27 304 8.0 16.1 0.00 0.00 0.00 29 1012.7
20260906032705 27 300 8.0 11.3 0.00 0.00 0.00 29 1012.6
20260906031705 27 299 8.0 14.5 0.00 0.00 0.00 28 1012.4
20260906025705 28 294 6.4 12.9 0.00 0.00 0.00 28 1012.2
20260906025208 28 303 4.8 12.9 0.00 0.00 0.00 27 1012.2
20260906024205 28 299 8.0 14.5 0.00 0.00 0.00 27 1012.0
20260906021704 30 312 4.8 11.3 0.00 0.00 0.00 27 1011.8
20260906020705 30 305 3.2 11.3 0.00 0.00 0.00 26 1011.7
20260906015704 30 292 1.6 11.3 0.00 0.00 0.00 26 1011.5
20260906014705 30 302 8.0 14.5 0.00 0.00 0.00 25 1011.5
20260906011705 31 307 4.8 11.3 0.00 0.00 0.00 25 1011.7
20260906010705 32 12 4.8 16.1 0.00 0.00 0.00 24 1011.6
20260906010205 32 327 8.0 16.1 0.00 0.00 0.00 24 1011.6
20260906005205 32 330 8.0 16.1 0.00 0.00 0.00 23 1011.7
20260906004704 32 328 9.7 16.1 0.00 0.00 0.00 23 1011.7
20260906003204 33 280 3.2 12.9 0.00 0.00 0.00 23 1011.7
20260906002705 33 288 4.8 12.9 0.00 0.00 0.00 23 1011.8
20260906001705 33 328 11.3 22.5 0.00 0.00 0.00 23 1011.6
20260905234205 34 338 12.9 19.3 0.00 0.00 0.00 22 1011.5